• în Republica Moldova
  • Lista ţărilor
  • Pe 7 zile
  • Temperatura apei
  • Hartă satelitară
  • Meteo pe hartă
  • Widget-uri
  • user-avatar
    Intrare

    Meteo pe oră la Shusha

    Astăzi, 22 Septembrie, Vineri

    Timp Temperatura Precipitaţii Vânt Presiune Umiditate
    00:00 +20°C° 0,1 mm 1 m/s 661 mmHg 52%
    01:00 +20°C° 0 mm 1 m/s 661 mmHg 53%
    02:00 +19°C° 0 mm 1 m/s 661 mmHg 54%
    03:00 +19°C° 0 mm 1 m/s 661 mmHg 55%
    04:00 +19°C° 0 mm 1 m/s 660 mmHg 55%
    05:00 +18°C° 0 mm 1 m/s 660 mmHg 56%
    06:00 +18°C° 0 mm 1 m/s 660 mmHg 56%
    07:00 +20°C° 0 mm 1 m/s 661 mmHg 51%
    08:00 +22°C° 0 mm 1 m/s 661 mmHg 45%
    09:00 +24°C° 0 mm 2 m/s 661 mmHg 40%
    10:00 +25°C° 0 mm 2 m/s 661 mmHg 36%
    11:00 +27°C° 0 mm 3 m/s 661 mmHg 33%
    12:00 +28°C° 0 mm 3 m/s 661 mmHg 29%
    13:00 +28°C° 0 mm 3 m/s 661 mmHg 29%
    14:00 +28°C° 0 mm 3 m/s 661 mmHg 29%
    15:00 +28°C° 0 mm 3 m/s 660 mmHg 29%
    16:00 +27°C° 0 mm 2 m/s 660 mmHg 34%
    17:00 +25°C° 0 mm 2 m/s 659 mmHg 39%
    18:00 +23°C° 0 mm 1 m/s 659 mmHg 44%
    19:00 +22°C° 0 mm 1 m/s 659 mmHg 46%
    20:00 +22°C° 0 mm 1 m/s 659 mmHg 48%
    21:00 +21°C° 0 mm 1 m/s 660 mmHg 50%
    22:00 +21°C° 0 mm 1 m/s 660 mmHg 52%
    23:00 +20°C° 0 mm 1 m/s 660 mmHg 54%

    Mâine, 23 Septembrie, Sâmbătă

    Timp Temperatura Precipitaţii Vânt Presiune Umiditate
    00:00 +20°C° 0 mm 1 m/s 660 mmHg 55%
    01:00 +19°C° 0 mm 1 m/s 660 mmHg 57%
    02:00 +19°C° 0 mm 1 m/s 660 mmHg 58%
    03:00 +19°C° 0 mm 1 m/s 660 mmHg 60%
    04:00 +18°C° 0 mm 1 m/s 660 mmHg 61%
    05:00 +18°C° 0 mm 1 m/s 661 mmHg 61%
    06:00 +18°C° 0 mm 1 m/s 661 mmHg 62%
    07:00 +19°C° 0 mm 1 m/s 661 mmHg 57%
    08:00 +20°C° 0 mm 2 m/s 662 mmHg 52%
    09:00 +23°C° 0 mm 2 m/s 663 mmHg 47%
    10:00 +24°C° 0 mm 2 m/s 663 mmHg 43%
    11:00 +25°C° 0 mm 3 m/s 663 mmHg 40%
    12:00 +27°C° 0 mm 3 m/s 663 mmHg 37%
    13:00 +27°C° 0 mm 3 m/s 663 mmHg 36%
    14:00 +27°C° 0 mm 3 m/s 662 mmHg 36%
    15:00 +27°C° 0 mm 4 m/s 662 mmHg 35%
    16:00 +25°C° 0,1 mm 3 m/s 662 mmHg 40%
    17:00 +24°C° 0,1 mm 3 m/s 662 mmHg 44%
    18:00 +21°C° 0,1 mm 3 m/s 661 mmHg 48%
    19:00 +20°C° 0 mm 2 m/s 661 mmHg 50%
    20:00 +19°C° 0 mm 2 m/s 662 mmHg 53%
    21:00 +18°C° 0 mm 2 m/s 662 mmHg 55%
    22:00 +17°C° 0 mm 2 m/s 662 mmHg 57%
    23:00 +17°C° 0 mm 2 m/s 662 mmHg 58%

    Poimâine, 24 Septembrie, Duminică

    Timp Temperatura Precipitaţii Vânt Presiune Umiditate
    00:00 +16°C° 0 mm 2 m/s 662 mmHg 59%
    01:00 +16°C° 0 mm 1 m/s 662 mmHg 60%
    02:00 +16°C° 0 mm 1 m/s 662 mmHg 60%
    03:00 +16°C° 0 mm 1 m/s 662 mmHg 60%
    04:00 +15°C° 0 mm 1 m/s 662 mmHg 61%
    05:00 +15°C° 0 mm 1 m/s 662 mmHg 62%
    06:00 +15°C° 0 mm 1 m/s 662 mmHg 62%
    07:00 +18°C° 0 mm 1 m/s 663 mmHg 56%
    08:00 +19°C° 0 mm 2 m/s 664 mmHg 50%
    09:00 +21°C° 0 mm 2 m/s 664 mmHg 44%
    10:00 +22°C° 0 mm 3 m/s 664 mmHg 41%
    11:00 +24°C° 0 mm 3 m/s 664 mmHg 38%
    12:00 +25°C° 0 mm 3 m/s 664 mmHg 35%
    13:00 +25°C° 0 mm 3 m/s 664 mmHg 36%
    14:00 +25°C° 0 mm 4 m/s 664 mmHg 36%
    15:00 +25°C° 0 mm 4 m/s 664 mmHg 37%
    16:00 +24°C° 0,1 mm 3 m/s 663 mmHg 42%
    17:00 +21°C° 0,1 mm 3 m/s 663 mmHg 48%
    18:00 +19°C° 0,1 mm 2 m/s 663 mmHg 53%
    19:00 +18°C° 0 mm 2 m/s 663 mmHg 59%
    20:00 +17°C° 0 mm 2 m/s 663 mmHg 64%
    21:00 +16°C° 0 mm 2 m/s 664 mmHg 70%
    22:00 +16°C° 0 mm 2 m/s 663 mmHg 71%
    23:00 +16°C° 0 mm 1 m/s 663 mmHg 73%

    25 Septembrie, Luni

    Timp Temperatura Precipitaţii Vânt Presiune Umiditate
    00:00 +15°C° 0 mm 1 m/s 663 mmHg 74%
    01:00 +15°C° 0 mm 1 m/s 663 mmHg 75%
    02:00 +15°C° 0 mm 1 m/s 663 mmHg 76%
    03:00 +14°C° 0 mm 1 m/s 663 mmHg 76%
    04:00 +14°C° 0 mm 1 m/s 663 mmHg 76%
    05:00 +14°C° 0 mm 1 m/s 663 mmHg 77%
    06:00 +14°C° 0 mm 1 m/s 663 mmHg 77%
    07:00 +16°C° 0 mm 1 m/s 664 mmHg 68%
    08:00 +18°C° 0 mm 2 m/s 664 mmHg 59%
    09:00 +19°C° 0 mm 2 m/s 665 mmHg 51%
    10:00 +21°C° 0 mm 2 m/s 665 mmHg 47%
    11:00 +22°C° 0 mm 3 m/s 665 mmHg 44%
    12:00 +24°C° 0 mm 3 m/s 665 mmHg 40%
    13:00 +24°C° 0 mm 3 m/s 665 mmHg 41%
    14:00 +24°C° 0 mm 3 m/s 664 mmHg 42%
    15:00 +23°C° 0 mm 4 m/s 664 mmHg 43%
    16:00 +22°C° 0 mm 3 m/s 664 mmHg 49%
    17:00 +20°C° 0 mm 3 m/s 664 mmHg 55%
    18:00 +19°C° 0 mm 3 m/s 664 mmHg 61%
    19:00 +18°C° 0,1 mm 3 m/s 664 mmHg 65%
    20:00 +17°C° 0,1 mm 3 m/s 664 mmHg 68%
    21:00 +16°C° 0,1 mm 3 m/s 664 mmHg 72%
    22:00 +16°C° 0 mm 2 m/s 664 mmHg 73%
    23:00 +15°C° 0 mm 2 m/s 664 mmHg 75%

    26 Septembrie, Marţi

    Timp Temperatura Precipitaţii Vânt Presiune Umiditate
    00:00 +15°C° 0 mm 2 m/s 664 mmHg 77%
    01:00 +15°C° 0 mm 2 m/s 663 mmHg 77%
    02:00 +14°C° 0 mm 2 m/s 663 mmHg 78%
    03:00 +14°C° 0 mm 2 m/s 663 mmHg 79%
    04:00 +14°C° 0 mm 2 m/s 663 mmHg 80%
    05:00 +13°C° 0 mm 2 m/s 663 mmHg 81%
    06:00 +13°C° 0 mm 2 m/s 663 mmHg 81%
    07:00 +14°C° 0 mm 2 m/s 664 mmHg 76%
    08:00 +15°C° 0 mm 2 m/s 664 mmHg 71%
    09:00 +16°C° 0 mm 3 m/s 664 mmHg 66%
    10:00 +17°C° 0 mm 3 m/s 664 mmHg 62%
    11:00 +19°C° 0 mm 3 m/s 664 mmHg 57%
    12:00 +20°C° 0 mm 3 m/s 664 mmHg 53%
    13:00 +20°C° 0 mm 3 m/s 663 mmHg 53%
    14:00 +20°C° 0 mm 3 m/s 663 mmHg 53%
    15:00 +20°C° 0 mm 3 m/s 663 mmHg 54%
    16:00 +19°C° 0 mm 3 m/s 662 mmHg 60%
    17:00 +18°C° 0 mm 3 m/s 662 mmHg 66%
    18:00 +16°C° 0 mm 2 m/s 662 mmHg 72%
    19:00 +16°C° 0 mm 2 m/s 662 mmHg 74%
    20:00 +15°C° 0 mm 2 m/s 662 mmHg 77%
    21:00 +15°C° 0 mm 2 m/s 662 mmHg 79%
    22:00 +15°C° 0 mm 1 m/s 661 mmHg 80%
    23:00 +14°C° 0 mm 1 m/s 661 mmHg 81%

    27 Septembrie, Miercuri

    Timp Temperatura Precipitaţii Vânt Presiune Umiditate
    00:00 +14°C° 0 mm 1 m/s 661 mmHg 83%
    01:00 +14°C° 0 mm 1 m/s 661 mmHg 83%
    02:00 +14°C° 0 mm 1 m/s 661 mmHg 83%
    03:00 +14°C° 0 mm 1 m/s 661 mmHg 83%
    04:00 +14°C° 0 mm 1 m/s 661 mmHg 83%
    05:00 +13°C° 0 mm 1 m/s 661 mmHg 83%
    06:00 +13°C° 0 mm 1 m/s 661 mmHg 84%
    07:00 +14°C° 0 mm 1 m/s 661 mmHg 79%
    08:00 +15°C° 0 mm 2 m/s 662 mmHg 74%
    09:00 +16°C° 0 mm 2 m/s 662 mmHg 69%
    10:00 +17°C° 0 mm 3 m/s 662 mmHg 68%
    11:00 +17°C° 0 mm 3 m/s 662 mmHg 67%
    12:00 +18°C° 0 mm 4 m/s 662 mmHg 65%
    13:00 +17°C° 0 mm 4 m/s 662 mmHg 66%
    14:00 +17°C° 0 mm 4 m/s 662 mmHg 67%
    15:00 +16°C° 0 mm 3 m/s 661 mmHg 68%
    16:00 +16°C° 0 mm 3 m/s 661 mmHg 71%
    17:00 +14°C° 0 mm 3 m/s 662 mmHg 74%
    18:00 +13°C° 0 mm 3 m/s 662 mmHg 77%
    19:00 +14°C° 0 mm 2 m/s 662 mmHg 78%
    20:00 +14°C° 0 mm 2 m/s 662 mmHg 78%
    21:00 +13°C° 0 mm 2 m/s 663 mmHg 79%
    22:00 +13°C° 0 mm 2 m/s 663 mmHg 79%
    23:00 +13°C° 0 mm 2 m/s 663 mmHg 79%
    Arată mai mult